Cloud_Cover
100 38 85 87 65 5 13 5 2 91 82 41 100 100 42 99 100 100 100 92 92 89 100 100 100 86 100 100 100 100 99 100 100 100 100 100 100 100 100 100 100 100 100
96 76 100 87 45 5 0 4 4 1 56 100 98 100 100 100 100 100 100 100 100 98 92 100 100 100 100 100 100 100 100 100 100 100 100 100 100 100 100 100 100 100 100
86 100 95 100 91 4 5 0 0 4 5 91 100 100 100 98 100 100 100 100 100 100 100 100 100 100 100 100 99 96 100 100 100 100 100 100 100 100 100 100 100 100 100
100 100 100 100 5 3 2 0 0 0 4 5 23 93 100 100 100 100 100 100 100 100 100 100 100 100 100 100 98 92 100 99 91 100 100 100 100 100 100 100 100 100 98
100 100 100 9 16 3 0 0 0 0 0 5 5 46 99 91 5 43 100 100 100 100 100 100 100 100 100 100 87 81 98 83 97 100 100 100 100 100 100 100 100 95 83
100 100 100 100 100 44 16 3 0 0 0 5 16 52 64 100 100 66 27 59 94 100 100 100 100 100 100 100 100 100 100 100 100 100 100 100 100 100 100 100 100 100 77
100 100 100 100 100 100 98 2 0 0 0 0 5 31 97 82 100 100 100 100 41 59 81 92 100 100 100 93 75 98 95 100 100 100 100 100 100 100 100 100 100 100 100
100 100 100 100 99 100 89 4 4 0 0 0 0 2 84 100 100 100 100 100 100 91 100 40 57 59 58 13 23 57 93 100 90 97 98 98 100 100 100 100 100 98 100
100 100 100 100 100 90 42 5 0 4 9 4 2 0 1 8 81 53 94 91 100 100 100 99 80 51 96 100 100 100 100 100 100 100 87 94 100 100 100 98 99 87 100
100 100 100 100 100 100 100 60 9 5 5 5 5 2 4 1 10 51 42 99 100 100 97 100 100 100 100 100 100 100 100 100 100 100 100 100 100 100 100 100 100 100 100
100 100 100 100 100 100 100 100 27 8 15 28 15 6 5 3 2 21 35 43 44 87 32 87 100 100 78 100 100 100 100 100 100 100 100 100 100 100 100 100 100 100 100
100 100 100 100 100 100 100 100 100 78 64 56 60 41 20 27 12 14 36 80 20 54 56 62 86 64 84 55 99 100 100 100 100 100 100 100 100 100 100 100 100 100 100
100 100 100 100 100 100 100 95 100 92 77 74 66 40 7 84 56 21 78 66 70 57 66 100 92 63 98 93 53 62 76 73 100 100 100 100 100 100 100 100 100 100 100
100 100 100 100 100 100 100 100 100 96 98 80 56 48 85 100 76 97 81 32 73 92 95 100 100 100 94 74 56 69 21 7 10 59 90 72 83 100 100 100 100 100 100
100 100 100 100 100 100 100 100 100 96 100 100 98 99 100 100 97 74 96 100 100 100 80 96 100 100 98 99 73 100 70 98 79 74 98 99 100 99 100 100 100 100 100
100 100 100 100 100 100 100 100 100 100 100 100 100 98 100 100 100 100 100 100 100 100 100 100 100 100 100 99 98 100 99 100 100 93 86 83 90 92 96 100 100 100 100
100 100 100 100 100 100 100 100 100 100 100 100 100 100 100 98 100 100 100 100 100 100 100 100 100 82 100 100 97 97 100 100 100 90 100 100 100 100 100 100 100 100 100
100 100 100 100 100 100 100 100 100 77 13 6 74 76 97 100 100 100 100 100 100 100 100 100 96 99 100 100 100 100 100 100 100 100 100 100 100 100 100 100 100 100 96
100 100 100 100 100 100 100 100 46 52 14 30 6 50 90 52 100 100 100 97 100 100 100 100 100 100 100 100 100 100 100 100 100 100 100 100 100 100 100 100 100 100 100
100 100 100 100 100 100 100 98 88 10 33 35 30 18 1 23 3 3 9 42 79 100 100 100 100 100 100 100 100 100 100 100 100 100 100 100 100 100 100 100 100 100 100
100 82 100 100 100 100 100 100 99 100 54 38 15 32 5 10 44 61 63 63 66 87 100 100 100 100 100 100 99 100 100 100 100 100 100 100 100 100 100 100 100 100 100
100 100 100 100 100 100 100 34 87 100 99 56 6 4 100 4 20 52 71 90 43 56 42 69 97 98 100 100 96 100 100 100 100 100 100 100 100 100 97 100 86 91 58
100 100 100 100 100 100 100 54 54 44 24 42 5 32 93 98 100 99 100 99 94 85 64 88 76 76 100 100 100 100 100 100 100 100 100 100 100 100 100 100 100 100 100
97 100 100 100 100 100 100 99 100 100 96 95 97 100 84 94 42 52 100 100 86 99 100 100 99 100 100 100 100 100 100 100 100 100 100 100 100 100 100 100 100 100 100
100 100 100 84 100 100 100 100 100 100 100 100 100 99 90 100 100 100 100 100 100 100 100 100 100 100 100 100 100 100 100 100 100 58 81 99 100 100 100 81 100 100 100
100 100 100 100 100 98 99 100 94 90 100 100 97 100 100 100 95 99 100 100 100 100 100 100 100 100 100 100 100 100 100 91 100 100 100 100 100 99 100 100 100 100 100